{"data":{"norad_id":56970,"epoch":"2026-09-19T08:52:17.823936Z","epoch_age_seconds":112310,"freshness":"FRESH","line1":"1 56970U 23084AQ  26262.36965074  .00010138  00000+0  25805-3 0  9997","line2":"2 56970  97.6413  50.4200 0007766 346.9427  13.1616 15.39761059182163","mean_motion":15.39761059,"eccentricity":0.0007766,"inclination_deg":97.6413,"raan_deg":50.42,"arg_perigee_deg":346.9427,"mean_anomaly_deg":13.1616,"bstar":0.00025805,"rev_number":18216,"period_min":93.521003897527,"perigee_km":441.51503539642,"apogee_km":452.11555129845,"semimajor_km":6824.9522933474,"source":"CELESTRAK","updated_at":"2026-09-20T09:00:34.869173Z"}}